sat.trackr.live / text

‹ back to catalog

STARLINK-34191

NORAD 64176 · 2025-113G

PAYLOAD ACTIVE UNKNOWN

§ Identity

Operator
Country
US
Launch date
2025-05-28
Launch site
AFETR
Launch vehicle
Mass (kg)
RCS (m²)

Purposes: comms

External: N2YO · Heavens-Above · Gunter

§ Orbital elements

Epoch: 2026-05-25T03:43:02.371584Z

Period
93.85 min
Inclination
53.1589°
Eccentricity
0.0001152
Mean motion
15.34405720 rev/d
Perigee alt
461.9 km
Apogee alt
463.5 km
Semi-major
6,840.8 km
B*
4.5947e-4
RAAN
95.1518°
Arg perigee
85.7610°
Mean anomaly
274.3524°
Rev number
5,678

§ Raw data

STARLINK-341911 64176U 25113G   26145.15488856  .00015182  00000+0  45947-3 0  99972 64176  53.1589  95.1518 0001152  85.7610 274.3524 15.34405720 56786

JSON: /api/v1/satellites/64176 · /tle

For live sub-satellite position, see the globe view (requires WebGL).

§ Visibility from observer

Set your observer location to see the next 7 days of passes ≥ 10°. The values pass through the URL so the page stays shareable.

No JS? Fill the form by hand. The geolocation button needs JavaScript.